FW8343 Weather Reports


Display with metric or nautical units.
time (UTC)temp
F
wind
direction
speed
MPH
gust
MPH
rain 1hr
in
rain 24hr
in
rain mn
in
humidity
%
barometer
mb
20260503020509 55 195 5.0 9.0 0.00 0.00 0.00 55 1010.0
20260503020030 55 172 4.0 9.0 0.00 0.00 0.00 54 1010.0
20260503015516 55 183 5.0 9.0 0.00 0.00 0.00 56 1010.0
20260503015013 55 180 5.0 8.0 0.00 0.00 0.00 57 1010.1
20260503014529 55 184 4.0 7.0 0.00 0.00 0.00 55 1010.0
20260503014011 55 186 3.0 6.0 0.00 0.00 0.00 55 1010.1
20260503013512 55 171 3.0 6.0 0.00 0.00 0.00 54 1010.0
20260503013031 55 180 2.0 6.0 0.00 0.00 0.00 56 1010.1
20260503012509 55 180 3.0 6.0 0.00 0.00 0.00 55 1010.0
20260503012015 55 195 4.0 6.0 0.00 0.00 0.00 56 1010.1
20260503011532 55 193 3.0 6.0 0.00 0.00 0.00 55 1010.1
20260503011010 56 194 3.0 7.0 0.00 0.00 0.00 54 1010.1
20260503010513 56 194 3.0 7.0 0.00 0.00 0.00 53 1010.2
20260503010030 56 199 3.0 7.0 0.00 0.00 0.00 51 1010.1
20260503005509 56 194 1.0 7.0 0.00 0.00 0.00 50 1010.2
20260503005013 56 202 2.0 7.0 0.00 0.00 0.00 51 1010.3
20260503004528 57 213 1.0 8.0 0.00 0.00 0.00 49 1010.3
20260503004008 57 223 2.0 10.0 0.00 0.00 0.00 46 1010.4
20260503003509 57 229 4.0 10.0 0.00 0.00 0.00 46 1010.4
20260503003039 57 213 4.0 10.0 0.00 0.00 0.00 47 1010.4
20260503002509 57 221 4.0 15.0 0.00 0.00 0.00 47 1010.5
20260503002010 57 227 5.0 15.0 0.00 0.00 0.00 46 1010.6
20260503001535 57 218 3.0 8.0 0.00 0.00 0.00 47 1010.6
20260503001012 57 226 1.0 8.0 0.00 0.00 0.00 51 1010.6
20260503000511 57 221 3.0 9.0 0.00 0.00 0.00 48 1010.7
20260503000029 57 223 4.0 9.0 0.00 0.00 0.00 47 1010.8
20260502235510 57 194 4.0 9.0 0.00 0.00 0.00 46 1010.8
20260502235014 57 221 4.0 9.0 0.00 0.00 0.00 49 1010.9
20260502234529 57 237 0.0 6.0 0.00 0.00 0.00 46 1010.9
20260502234009 57 210 2.0 8.0 0.00 0.00 0.00 49 1011.0
20260502233509 57 240 3.0 10.0 0.00 0.00 0.00 43 1011.0
20260502233028 57 263 2.0 10.0 0.00 0.00 0.00 44 1011.2
20260502232508 57 202 3.0 18.0 0.00 0.00 0.00 49 1011.2
20260502232009 57 225 7.0 20.0 0.00 0.00 0.00 43 1011.2
20260502231528 57 208 9.0 20.0 0.00 0.00 0.00 45 1011.4
20260502231008 58 203 6.0 12.0 0.00 0.00 0.00 42 1011.2
20260502230513 58 269 4.0 10.0 0.00 0.00 0.00 43 1011.2
20260502230031 58 226 4.0 11.0 0.00 0.00 0.00 41 1011.2
20260502225511 58 227 4.0 11.0 0.00 0.00 0.00 43 1011.2
20260502225014 59 277 3.0 10.0 0.00 0.00 0.00 40 1011.3
20260502224535 58 273 3.0 10.0 0.00 0.00 0.00 42 1011.3
20260502224010 58 299 4.0 13.0 0.00 0.00 0.00 42 1011.3
20260502223512 58 215 5.0 14.0 0.00 0.00 0.00 41 1011.4
20260502223031 57 215 3.0 14.0 0.00 0.00 0.00 44 1011.5
20260502222512 58 220 3.0 15.0 0.00 0.00 0.00 41 1011.6
20260502222015 58 240 5.0 15.0 0.00 0.00 0.00 39 1011.5
20260502221531 58 227 3.0 11.0 0.00 0.00 0.00 38 1011.6
20260502221010 57 232 3.0 13.0 0.00 0.00 0.00 40 1011.6
20260502220515 57 194 4.0 13.0 0.00 0.00 0.00 45 1011.7
20260502220034 57 226 3.0 9.0 0.00 0.00 0.00 40 1011.7
20260502215509 57 221 4.0 9.0 0.00 0.00 0.00 38 1011.7
20260502215010 57 207 1.0 6.0 0.00 0.00 0.00 41 1011.8
20260502214528 57 198 1.0 8.0 0.00 0.00 0.00 39 1011.8
20260502214013 57 228 1.0 9.0 0.00 0.00 0.00 35 1011.9
20260502213514 58 211 4.0 9.0 0.00 0.00 0.00 36 1012.0
20260502213033 58 221 2.0 8.0 0.00 0.00 0.00 45 1012.0
20260502212511 57 273 3.0 11.0 0.00 0.00 0.00 37 1012.1
20260502212014 57 277 4.0 11.0 0.00 0.00 0.00 37 1012.2
20260502211531 58 201 4.0 11.0 0.00 0.00 0.00 42 1012.2
20260502211009 59 228 3.0 8.0 0.00 0.00 0.00 36 1012.2
20260502210509 58 294 2.0 10.0 0.00 0.00 0.00 36 1012.2
20260502210031 59 213 3.0 10.0 0.00 0.00 0.00 36 1012.3
20260502205511 59 281 4.0 11.0 0.00 0.00 0.00 36 1012.4
20260502205014 60 242 6.0 11.0 0.00 0.00 0.00 36 1012.5
20260502204535 59 300 2.0 13.0 0.00 0.00 0.00 39 1012.4
20260502204010 58 261 2.0 13.0 0.00 0.00 0.00 37 1012.5
20260502203512 58 282 2.0 11.0 0.00 0.00 0.00 38 1012.7
20260502203036 58 274 2.0 7.0 0.00 0.00 0.00 37 1012.8
20260502202510 58 333 3.0 10.0 0.00 0.00 0.00 33 1012.7
20260502202015 57 264 2.0 10.0 0.00 0.00 0.00 38 1012.7
20260502201530 57 227 4.0 10.0 0.00 0.00 0.00 38 1012.8
20260502201010 57 269 3.0 9.0 0.00 0.00 0.00 34 1012.8
20260502200514 57 269 4.0 9.0 0.00 0.00 0.00 36 1012.9
20260502200054 57 233 4.0 8.0 0.00 0.00 0.00 35 1012.9
20260502195510 58 222 3.0 6.0 0.00 0.00 0.00 35 1013.1
20260502195010 59 218 1.0 9.0 0.00 0.00 0.00 32 1013.1
20260502194531 58 233 4.0 9.0 0.00 0.00 0.00 36 1013.2
20260502194010 58 213 3.0 8.0 0.00 0.00 0.00 43 1013.3
20260502193511 58 280 2.0 9.0 0.00 0.00 0.00 32 1013.3
20260502193031 57 281 2.0 12.0 0.00 0.00 0.00 31 1013.4
20260502192510 58 226 3.0 12.0 0.00 0.00 0.00 34 1013.7
20260502192014 57 205 3.0 9.0 0.00 0.00 0.00 33 1013.7
20260502191530 56 219 1.0 9.0 0.00 0.00 0.00 36 1013.8
20260502191010 56 183 4.0 7.0 0.00 0.00 0.00 37 1013.9
20260502190511 57 198 2.0 15.0 0.00 0.00 0.00 34 1014.1
20260502190030 56 259 4.0 15.0 0.00 0.00 0.00 35 1014.1
20260502185511 56 226 4.0 8.0 0.00 0.00 0.00 37 1014.2
20260502185015 57 193 2.0 7.0 0.00 0.00 0.00 40 1014.3
20260502184530 56 257 1.0 7.0 0.00 0.00 0.00 38 1014.3
20260502184010 56 0 2.0 8.0 0.00 0.00 0.00 33 1014.4
20260502183512 56 209 3.0 11.0 0.00 0.00 0.00 36 1014.5
20260502183036 56 263 2.0 11.0 0.00 0.00 0.00 37 1014.5
20260502182514 56 222 4.0 10.0 0.00 0.00 0.00 37 1014.5
20260502182014 54 270 1.0 10.0 0.00 0.00 0.00 39 1014.6
20260502181531 55 0 3.0 10.0 0.00 0.00 0.00 38 1014.8
20260502181007 55 223 4.0 8.0 0.00 0.00 0.00 37 1014.9
20260502180512 54 277 3.0 10.0 0.00 0.00 0.00 41 1014.8
20260502170514 53 0 1.0 5.0 0.00 0.00 0.00 37 1015.8
20260502164009 53 69 0.0 7.0 0.00 0.00 0.00 37 1016.3
20260502163512 53 115 1.0 5.0 0.00 0.00 0.00 36 1016.3
20260502163030 53 198 1.0 4.0 0.00 0.00 0.00 38 1016.3
20260502162511 53 260 2.0 9.0 0.00 0.00 0.00 41 1016.5
20260502162012 52 232 3.0 9.0 0.00 0.00 0.00 39 1016.5
20260502161530 52 244 3.0 9.0 0.00 0.00 0.00 39 1016.6
20260502161011 53 0 2.0 6.0 0.00 0.00 0.00 38 1016.7
20260502160514 53 0 1.0 11.0 0.00 0.00 0.00 37 1016.6
20260502152015 52 255 1.0 6.0 0.00 0.00 0.00 40 1017.0
20260502151531 52 269 2.0 6.0 0.00 0.00 0.00 41 1017.1
20260502151012 52 228 1.0 5.0 0.00 0.00 0.00 42 1017.1
20260502150513 51 315 1.0 5.0 0.00 0.00 0.00 42 1017.1
20260502130512 41 218 2.0 7.0 0.00 0.00 0.00 65 1017.9
20260502123514 37 202 1.0 4.0 0.00 0.00 0.00 68 1018.0
20260502123029 37 234 2.0 4.0 0.00 0.00 0.00 72 1018.1
20260502122508 36 234 2.0 4.0 0.00 0.00 0.00 72 1018.1
20260502122011 35 234 2.0 4.0 0.00 0.00 0.00 73 1018.1
20260502121535 34 234 2.0 4.0 0.00 0.00 0.00 75 1018.0
20260502121009 34 302 0.0 3.0 0.00 0.00 0.00 77 1018.0
20260502120511 33 0 0.0 0.0 0.00 0.00 0.00 78 1018.1
20260502115510 32 0 0.0 1.0 0.00 0.00 0.00 79 1018.0
20260502115013 32 0 0.0 1.0 0.00 0.00 0.00 79 1018.0
20260502114530 32 0 0.0 0.0 0.00 0.00 0.00 79 1017.9
20260502114010 31 0 0.0 0.0 0.00 0.00 0.00 80 1018.0
20260502113508 31 0 0.0 0.0 0.00 0.00 0.00 83 1018.0
20260502113031 30 0 0.0 0.0 0.00 0.00 0.00 83 1018.0
20260502112508 30 0 0.0 0.0 0.00 0.00 0.00 81 1017.9
20260502112016 30 0 0.0 0.0 0.00 0.00 0.00 79 1017.9
20260502111532 30 0 0.0 0.0 0.00 0.00 0.00 76 1017.9
20260502111011 30 0 0.0 0.0 0.00 0.00 0.00 75 1017.9
20260502110513 31 0 0.0 0.0 0.00 0.00 0.00 74 1017.9
20260502110035 31 0 0.0 0.0 0.00 0.00 0.00 73 1017.8
20260502105511 32 0 0.0 0.0 0.00 0.00 0.00 73 1018.0
20260502105011 32 0 0.0 0.0 0.00 0.00 0.00 73 1017.9
20260502104529 32 0 0.0 0.0 0.00 0.00 0.00 73 1017.9
20260502104013 32 0 0.0 2.0 0.00 0.00 0.00 73 1017.9
20260502103511 32 0 0.0 2.0 0.00 0.00 0.00 73 1018.0
20260502103056 32 0 0.0 2.0 0.00 0.00 0.00 73 1018.0
20260502102513 32 0 0.0 2.0 0.00 0.00 0.00 74 1018.0
20260502102013 32 0 0.0 2.0 0.00 0.00 0.00 74 1018.0
20260502101546 32 0 0.0 2.0 0.00 0.00 0.00 74 1018.1
20260502101012 32 0 0.0 0.0 0.00 0.00 0.00 74 1018.0
20260502100512 32 0 0.0 0.0 0.00 0.00 0.00 75 1018.0
20260502091529 32 0 0.0 0.0 0.00 0.00 0.00 76 1018.1
20260502091011 32 0 0.0 0.0 0.00 0.00 0.00 77 1018.1
20260502090511 32 0 0.0 0.0 0.00 0.00 0.00 77 1018.1
20260502071534 31 0 0.0 0.0 0.00 0.00 0.00 82 1018.5
20260502071010 31 0 0.0 0.0 0.00 0.00 0.00 83 1018.5
20260502070513 30 0 0.0 0.0 0.00 0.00 0.00 83 1018.6
20260502070030 31 0 0.0 0.0 0.00 0.00 0.00 82 1018.6
20260502065513 31 0 0.0 0.0 0.00 0.00 0.00 81 1018.6
20260502065017 31 0 0.0 0.0 0.00 0.00 0.00 82 1018.6
20260502064535 32 0 0.0 0.0 0.00 0.00 0.00 84 1018.7
20260502064012 32 0 0.0 0.0 0.00 0.00 0.00 86 1018.7
20260502063510 32 0 0.0 0.0 0.00 0.00 0.00 86 1018.7
20260502063032 32 0 0.0 0.0 0.00 0.00 0.00 85 1018.7
20260502062513 31 0 0.0 0.0 0.00 0.00 0.00 85 1018.7
20260502062011 31 0 0.0 0.0 0.00 0.00 0.00 84 1018.8
20260502061528 31 0 0.0 0.0 0.00 0.00 0.00 83 1018.7
20260502061013 31 0 0.0 0.0 0.00 0.00 0.00 80 1018.8
20260502060512 31 0 0.0 0.0 0.00 0.00 0.00 80 1018.8
20260502060030 31 0 0.0 0.0 0.00 0.00 0.00 80 1018.8
20260502055511 31 0 0.0 0.0 0.00 0.00 0.00 80 1018.8
20260502055009 31 0 0.0 0.0 0.00 0.00 0.00 83 1018.8
20260502054545 31 0 0.0 0.0 0.00 0.00 0.00 82 1018.7
20260502054009 31 0 0.0 0.0 0.00 0.00 0.00 80 1018.8
20260502053513 32 0 0.0 0.0 0.00 0.00 0.00 80 1018.8
20260502053032 32 0 0.0 0.0 0.00 0.00 0.00 79 1018.8
20260502052510 32 0 0.0 0.0 0.00 0.00 0.00 80 1018.8
20260502052012 32 0 0.0 0.0 0.00 0.00 0.00 78 1018.8
20260502051533 32 0 0.0 0.0 0.00 0.00 0.00 77 1018.8
20260502051009 33 0 0.0 0.0 0.00 0.00 0.00 78 1018.8
20260502050508 33 0 0.0 0.0 0.00 0.00 0.00 80 1018.8
20260502050031 33 0 0.0 0.0 0.00 0.00 0.00 82 1018.9
20260502045510 33 0 0.0 0.0 0.00 0.00 0.00 83 1018.9
20260502045011 33 0 0.0 0.0 0.00 0.00 0.00 81 1018.8
20260502044530 33 0 0.0 0.0 0.00 0.00 0.00 79 1018.8
20260502044008 34 0 0.0 0.0 0.00 0.00 0.00 77 1018.8
20260502043511 34 0 0.0 0.0 0.00 0.00 0.00 76 1018.9
20260502043031 35 0 0.0 0.0 0.00 0.00 0.00 73 1018.8
20260502042511 35 0 0.0 0.0 0.00 0.00 0.00 73 1018.9
20260502042013 35 0 0.0 0.0 0.00 0.00 0.00 73 1018.9
20260502041534 35 0 0.0 0.0 0.00 0.00 0.00 73 1018.9
20260502041010 35 0 0.0 0.0 0.00 0.00 0.00 74 1018.9
20260502040513 35 0 0.0 0.0 0.00 0.00 0.00 75 1018.9
20260502040032 35 0 0.0 0.0 0.00 0.00 0.00 77 1018.9
20260502035509 36 0 0.0 0.0 0.00 0.00 0.00 78 1019.1
20260502035013 36 0 0.0 0.0 0.00 0.00 0.00 71 1018.9
20260502034530 36 0 0.0 0.0 0.00 0.00 0.00 69 1019.0
20260502034014 36 0 0.0 0.0 0.00 0.00 0.00 69 1018.9
20260502033510 37 0 0.0 0.0 0.00 0.00 0.00 70 1018.9
20260502033039 37 0 0.0 0.0 0.00 0.00 0.00 69 1018.9
20260502032513 37 0 0.0 4.0 0.00 0.00 0.00 69 1018.9
20260502032015 38 0 0.0 4.0 0.00 0.00 0.00 69 1018.9
20260502031530 38 302 0.0 4.0 0.00 0.00 0.00 68 1018.9
20260502031009 39 0 0.0 4.0 0.00 0.00 0.00 67 1018.9
20260502030511 39 302 0.0 4.0 0.00 0.00 0.00 67 1018.9
20260502030035 40 302 1.0 4.0 0.00 0.00 0.00 68 1018.9
20260502025510 40 0 0.0 2.0 0.00 0.00 0.00 63 1018.8
20260502025011 40 0 0.0 3.0 0.00 0.00 0.00 63 1018.8
20260502024530 41 302 1.0 3.0 0.00 0.00 0.00 63 1018.9
20260502024015 40 0 0.0 0.0 0.00 0.00 0.00 63 1018.9
20260502023512 41 0 0.0 3.0 0.00 0.00 0.00 62 1018.9
20260502023031 41 0 0.0 3.0 0.00 0.00 0.00 60 1018.9
20260502022508 40 0 0.0 3.0 0.00 0.00 0.00 63 1018.9
20260502022016 40 302 1.0 3.0 0.00 0.00 0.00 68 1018.9
20260502021531 39 0 0.0 0.0 0.00 0.00 0.00 64 1018.9
20260502021008 39 0 0.0 0.0 0.00 0.00 0.00 63 1018.8